Location: *
(6.0000°S, 32.3997°W)
Time: 00:07:43
(UTC+00:00)

Cosmos 1943 - Pass Details

Date: 01 April 2020
Orbit: 832 x 851 km, 71.0° (Epoch: 06 June)

Event Time Altitude Azimuth Distance (km) Brightness Sun altitude
Rises 20:50:38 0° 187° (S) 3,381 6.4 -9.8°
Reaches altitude 10° 20:53:09 10° 182° (S) 2,445 5.6 -10.4°
Maximum altitude 20:58:36 53° 106° (ESE) 1,022 3.3 -11.8°
Drops below altitude 10° 21:04:01 10° 30° (NNE) 2,438 5.3 -13.1°
Sets 21:06:30 0° 25° (NNE) 3,371 6.1 -13.7°
